TimeCST,TemperatureF,Dew PointF,Humidity,Sea Level PressureIn,VisibilityMPH,Wind Direction,Wind SpeedMPH,Gust SpeedMPH,PrecipitationIn,Events,Conditions,WindDirDegrees,DateUTC
12:53 AM,21.9,18.0,85,30.11,10.0,SE,11.5,-,N/A,,Clear,130,2013-11-19 06:53:00
1:53 AM,21.9,18.0,85,30.08,10.0,SE,11.5,-,N/A,,Clear,140,2013-11-19 07:53:00
2:53 AM,23.0,18.0,81,30.06,10.0,SE,12.7,-,N/A,,Clear,140,2013-11-19 08:53:00
3:53 AM,23.0,18.0,81,30.03,10.0,SSE,15.0,-,N/A,,Clear,150,2013-11-19 09:53:00
4:53 AM,23.0,18.0,81,30.01,10.0,SSE,13.8,-,N/A,,Clear,150,2013-11-19 10:53:00
5:53 AM,23.0,19.0,85,29.98,10.0,SSE,12.7,-,N/A,,Scattered Clouds,160,2013-11-19 11:53:00
6:53 AM,24.1,19.9,84,29.95,10.0,SSE,12.7,-,N/A,,Overcast,150,2013-11-19 12:53:00
7:53 AM,26.1,21.0,81,29.93,10.0,SSE,16.1,-,N/A,,Overcast,150,2013-11-19 13:53:00
8:53 AM,28.0,21.9,78,29.90,10.0,SSE,18.4,-,N/A,,Overcast,150,2013-11-19 14:53:00
9:53 AM,30.0,23.0,75,29.87,10.0,SSE,18.4,-,N/A,,Overcast,150,2013-11-19 15:53:00
10:53 AM,33.1,24.1,70,29.82,10.0,SSE,16.1,-,N/A,,Overcast,150,2013-11-19 16:53:00
11:53 AM,35.1,25.0,67,29.75,10.0,SSE,27.6,33.4,N/A,,Overcast,150,2013-11-19 17:53:00
12:53 PM,37.0,26.1,65,29.71,10.0,SSE,18.4,28.8,N/A,,Overcast,160,2013-11-19 18:53:00
1:53 PM,37.9,26.1,62,29.65,10.0,SSE,26.5,32.2,N/A,,Overcast,150,2013-11-19 19:53:00
2:53 PM,39.9,27.0,60,29.61,10.0,SSE,24.2,36.8,N/A,,Overcast,160,2013-11-19 20:53:00
3:53 PM,37.9,27.0,65,29.60,10.0,SSE,18.4,-,N/A,,Overcast,150,2013-11-19 21:53:00
4:53 PM,37.0,27.0,67,29.59,10.0,SE,9.2,-,N/A,,Overcast,140,2013-11-19 22:53:00
5:53 PM,35.1,28.0,76,29.59,10.0,SE,6.9,-,N/A,,Overcast,130,2013-11-19 23:53:00
6:53 PM,37.0,28.9,73,29.56,10.0,SE,8.1,-,N/A,,Overcast,140,2013-11-20 00:53:00
7:53 PM,41.0,32.0,70,29.54,10.0,South,11.5,-,N/A,,Overcast,180,2013-11-20 01:53:00
8:53 PM,36.0,30.0,79,29.54,10.0,South,10.4,-,N/A,,Mostly Cloudy,180,2013-11-20 02:53:00
9:53 PM,35.1,28.9,78,29.56,10.0,SW,4.6,-,N/A,,Mostly Cloudy,230,2013-11-20 03:53:00
10:53 PM,30.0,27.0,88,29.57,10.0,SSW,6.9,-,N/A,,Mostly Cloudy,200,2013-11-20 04:53:00
11:53 PM,28.9,25.0,85,29.59,10.0,SSW,3.5,-,N/A,,Clear,210,2013-11-20 05:53:00